{"data":{"norad_id":48356,"epoch":"2026-09-19T21:04:33.718656Z","epoch_age_seconds":87367,"freshness":"FRESH","line1":"1 48356U 21038D   26262.87816804  .00006774  00000+0  22919-3 0  9999","line2":"2 48356  53.1592 174.6850 0001288  88.9954 271.1195 15.31796187296838","mean_motion":15.31796187,"eccentricity":0.0001288,"inclination_deg":53.1592,"raan_deg":174.685,"arg_perigee_deg":88.9954,"mean_anomaly_deg":271.1195,"bstar":0.00022919,"rev_number":29683,"period_min":94.007284534388,"perigee_km":469.57118335955,"apogee_km":471.33538021614,"semimajor_km":6848.5902817878,"source":"CELESTRAK","updated_at":"2026-09-20T09:00:38.939199Z"}}